Terug naar catalogus

SL-12 DEB

LostHEO
NORAD 41768·DEBRIS·🇷🇺 Russia

Gelanceerd Dec 25, 2006 vanaf Baikonur Cosmodrome

Loading…

Volgende Passages (komende 24 uur)

TLE

VerouderdSource: Space-Track

Epoch: Aug 18, 2025, 13:35 UTC

1 41768U 06062J   25230.56629842 -.00000018  00000-0  21173-3 0  9991
2 41768  64.7378  40.8097 5449302 293.7212  19.3761  4.48751807142057

Volg SL-12 DEB in realtime met AllMySat

Download on the App Store